Location: Binningen
(47.7924°N, 8.7261°E)
Time: 14:03:39
(UTC+00:00)

Terra - Pass Details

Date: 17 May 2021
Orbit: 701 x 703 km, 98.2° (Epoch: 19 June)

Event Time Altitude Azimuth Distance (km) Brightness Sun altitude
Exits shadow 20:55:17 25° 144° (SE) 1,412 2.8 -15.1°
Maximum altitude 20:57:59 61° 72° (ENE) 801 2.0 -15.4°
Drops below altitude 10° 21:02:41 10° 353° (N) 2,182 5.4 -15.8°
Sets 21:04:58 0° 350° (N) 3,105 6.4 -16.0°
